TimeCDT,TemperatureF,Dew PointF,Humidity,Sea Level PressureIn,VisibilityMPH,Wind Direction,Wind SpeedMPH,Gust SpeedMPH,PrecipitationIn,Events,Conditions,WindDirDegrees,DateUTC
12:15 AM,41.0,24.8,53,29.98,10.0,West,6.9,-,N/A,,Clear,280,2012-11-01 05:15:00
12:35 AM,39.2,26.6,61,29.98,10.0,West,5.8,-,N/A,,Clear,280,2012-11-01 05:35:00
12:55 AM,37.4,26.6,65,29.98,10.0,West,5.8,-,N/A,,Clear,280,2012-11-01 05:55:00
1:15 AM,37.4,26.6,65,29.97,10.0,West,5.8,-,N/A,,Clear,270,2012-11-01 06:15:00
1:35 AM,37.4,24.8,60,29.98,10.0,West,4.6,-,N/A,,Clear,270,2012-11-01 06:35:00
1:55 AM,37.4,24.8,60,29.97,10.0,West,3.5,-,N/A,,Clear,270,2012-11-01 06:55:00
2:15 AM,37.4,26.6,65,29.98,10.0,West,4.6,-,N/A,,Clear,270,2012-11-01 07:15:00
2:35 AM,37.4,26.6,65,29.97,10.0,West,4.6,-,N/A,,Clear,270,2012-11-01 07:35:00
2:55 AM,37.4,26.6,65,29.97,10.0,WSW,3.5,-,N/A,,Scattered Clouds,250,2012-11-01 07:55:00
3:15 AM,35.6,26.6,70,29.97,10.0,West,5.8,-,N/A,,Scattered Clouds,260,2012-11-01 08:15:00
3:35 AM,35.6,26.6,70,29.97,10.0,West,5.8,-,N/A,,Clear,260,2012-11-01 08:35:00
3:55 AM,35.6,26.6,70,29.96,10.0,WSW,4.6,-,N/A,,Scattered Clouds,250,2012-11-01 08:55:00
4:15 AM,37.4,26.6,65,29.96,10.0,Calm,Calm,-,N/A,,Mostly Cloudy,0,2012-11-01 09:15:00
4:35 AM,37.4,26.6,65,29.95,10.0,SW,4.6,-,N/A,,Mostly Cloudy,230,2012-11-01 09:35:00
4:55 AM,35.6,26.6,70,29.95,10.0,SW,4.6,-,N/A,,Scattered Clouds,230,2012-11-01 09:55:00
5:15 AM,37.4,26.6,65,29.95,10.0,WSW,5.8,-,N/A,,Clear,240,2012-11-01 10:15:00
5:35 AM,37.4,26.6,65,29.96,10.0,Calm,Calm,-,N/A,,Scattered Clouds,0,2012-11-01 10:35:00
5:55 AM,37.4,28.4,70,29.95,10.0,WSW,4.6,-,N/A,,Mostly Cloudy,250,2012-11-01 10:55:00
6:15 AM,37.4,28.4,70,29.95,10.0,Calm,Calm,-,N/A,,Scattered Clouds,0,2012-11-01 11:15:00
6:35 AM,37.4,28.4,70,29.96,10.0,Calm,Calm,-,N/A,,Clear,0,2012-11-01 11:35:00
7:15 AM,35.6,26.6,70,29.96,10.0,Calm,Calm,-,N/A,,Clear,0,2012-11-01 12:15:00
7:35 AM,35.6,28.4,75,29.96,10.0,Calm,Calm,-,N/A,,Mostly Cloudy,0,2012-11-01 12:35:00
8:35 AM,41.0,32.0,70,29.96,10.0,Calm,Calm,-,N/A,,Overcast,0,2012-11-01 13:35:00
8:55 AM,42.8,33.8,70,29.96,10.0,SSW,4.6,-,N/A,,Overcast,210,2012-11-01 13:55:00
9:15 AM,44.6,33.8,66,29.96,10.0,SSW,3.5,-,N/A,,Overcast,210,2012-11-01 14:15:00
9:35 AM,46.4,33.8,62,29.95,10.0,SSW,5.8,-,N/A,,Overcast,210,2012-11-01 14:35:00
9:55 AM,48.2,35.6,62,29.95,10.0,SW,5.8,-,N/A,,Overcast,220,2012-11-01 14:55:00
10:15 AM,51.8,37.4,58,29.95,10.0,SW,5.8,-,N/A,,Overcast,230,2012-11-01 15:15:00
10:35 AM,53.6,37.4,54,29.95,10.0,WSW,8.1,-,N/A,,Overcast,250,2012-11-01 15:35:00
10:55 AM,55.4,37.4,51,29.95,10.0,West,9.2,-,N/A,,Overcast,260,2012-11-01 15:55:00
11:15 AM,57.2,37.4,48,29.95,10.0,West,6.9,-,N/A,,Overcast,260,2012-11-01 16:15:00
11:35 AM,57.2,37.4,48,29.94,10.0,WSW,6.9,-,N/A,,Overcast,240,2012-11-01 16:35:00
11:55 AM,60.8,37.4,42,29.93,10.0,West,6.9,-,N/A,,Scattered Clouds,270,2012-11-01 16:55:00
12:15 PM,62.6,35.6,37,29.92,10.0,West,8.1,-,N/A,,Clear,270,2012-11-01 17:15:00
12:35 PM,64.4,35.6,34,29.92,10.0,WSW,9.2,-,N/A,,Clear,250,2012-11-01 17:35:00
1:15 PM,66.2,37.4,35,29.90,10.0,WNW,10.4,18.4,N/A,,Clear,290,2012-11-01 18:15:00
1:35 PM,66.2,37.4,35,29.89,10.0,NW,11.5,18.4,N/A,,Clear,310,2012-11-01 18:35:00
1:55 PM,66.2,39.2,37,29.88,10.0,WNW,10.4,18.4,N/A,,Clear,290,2012-11-01 18:55:00
2:15 PM,66.2,39.2,37,29.88,10.0,WNW,11.5,17.3,N/A,,Clear,290,2012-11-01 19:15:00
2:35 PM,66.2,39.2,37,29.88,10.0,NW,13.8,18.4,N/A,,Clear,310,2012-11-01 19:35:00
2:55 PM,66.2,39.2,37,29.88,10.0,WNW,11.5,19.6,N/A,,Clear,300,2012-11-01 19:55:00
3:15 PM,66.2,39.2,37,29.88,10.0,NW,12.7,16.1,N/A,,Clear,320,2012-11-01 20:15:00
3:35 PM,64.4,37.4,37,29.88,10.0,NW,15.0,20.7,N/A,,Clear,320,2012-11-01 20:35:00
3:55 PM,64.4,37.4,37,29.88,10.0,NW,12.7,18.4,N/A,,Clear,320,2012-11-01 20:55:00
4:15 PM,64.4,37.4,37,29.88,10.0,NNW,13.8,18.4,N/A,,Clear,330,2012-11-01 21:15:00
4:35 PM,62.6,37.4,39,29.88,10.0,NNW,12.7,21.9,N/A,,Clear,330,2012-11-01 21:35:00
4:55 PM,62.6,37.4,39,29.88,10.0,NNW,13.8,-,N/A,,Clear,330,2012-11-01 21:55:00
5:15 PM,60.8,37.4,42,29.89,10.0,NNW,11.5,-,N/A,,Clear,330,2012-11-01 22:15:00
5:35 PM,59.0,37.4,45,29.89,10.0,NNW,10.4,-,N/A,,Clear,330,2012-11-01 22:35:00
5:55 PM,55.4,37.4,51,29.90,10.0,NW,8.1,-,N/A,,Clear,320,2012-11-01 22:55:00
6:15 PM,53.6,35.6,51,29.90,10.0,NNW,10.4,-,N/A,,Clear,330,2012-11-01 23:15:00
6:35 PM,48.2,35.6,62,29.91,7.0,NNW,9.2,-,N/A,,Clear,330,2012-11-01 23:35:00
6:55 PM,48.2,33.8,58,29.92,10.0,NNW,9.2,-,N/A,,Clear,330,2012-11-01 23:55:00
7:15 PM,46.4,33.8,62,29.93,10.0,NNW,9.2,-,N/A,,Clear,330,2012-11-02 00:15:00
7:35 PM,46.4,33.8,62,29.93,10.0,NNW,9.2,-,N/A,,Clear,340,2012-11-02 00:35:00
7:55 PM,44.6,32.0,61,29.94,7.0,NNW,8.1,-,N/A,,Clear,340,2012-11-02 00:55:00
8:15 PM,42.8,32.0,66,29.95,7.0,NNW,9.2,-,N/A,,Clear,330,2012-11-02 01:15:00
8:35 PM,42.8,33.8,70,29.95,10.0,NNW,8.1,-,N/A,,Clear,340,2012-11-02 01:35:00
8:55 PM,44.6,33.8,66,29.95,10.0,NNW,6.9,-,N/A,,Clear,340,2012-11-02 01:55:00
9:15 PM,41.0,30.2,65,29.95,10.0,NNW,6.9,-,N/A,,Clear,340,2012-11-02 02:15:00
9:35 PM,39.2,30.2,70,29.96,10.0,NNW,6.9,-,N/A,,Clear,340,2012-11-02 02:35:00
9:55 PM,41.0,30.2,65,29.96,10.0,North,5.8,-,N/A,,Clear,350,2012-11-02 02:55:00
10:15 PM,41.0,32.0,70,29.97,10.0,North,5.8,-,N/A,,Clear,350,2012-11-02 03:15:00
10:35 PM,37.4,30.2,75,29.97,10.0,North,9.2,-,N/A,,Clear,350,2012-11-02 03:35:00
10:55 PM,39.2,30.2,70,29.98,10.0,North,9.2,-,N/A,,Clear,350,2012-11-02 03:55:00
11:15 PM,37.4,30.2,75,29.98,10.0,North,5.8,-,N/A,,Clear,350,2012-11-02 04:15:00
11:35 PM,37.4,30.2,75,29.98,10.0,North,4.6,-,N/A,,Clear,350,2012-11-02 04:35:00
11:55 PM,37.4,30.2,75,29.99,10.0,North,4.6,-,N/A,,Clear,350,2012-11-02 04:55:00